QPF
0.02 0.02 0.01 0.00 0.00 0.00 0.00 0.00 0.00 0.00 0.00 0.00 0.00 0.00 0.00 0.00 0.00 0.00 0.00 0.00 0.00 0.01 0.01 0.01 0.01 0.02 0.02 0.03 0.02 0.02 0.02 0.04 0.05 0.05 0.04 0.05 0.06 0.06 0.07 0.07 0.07 0.06 0.06
0.04 0.03 0.02 0.01 0.01 0.01 0.01 0.01 0.00 0.00 0.00 0.00 0.00 0.00 0.00 0.00 0.00 0.00 0.00 0.00 0.00 0.01 0.01 0.01 0.01 0.01 0.02 0.02 0.02 0.02 0.02 0.02 0.03 0.04 0.03 0.03 0.03 0.04 0.06 0.08 0.09 0.09 0.08
0.05 0.04 0.04 0.03 0.01 0.01 0.01 0.00 0.00 0.00 0.00 0.00 0.00 0.00 0.01 0.01 0.01 0.01 0.01 0.01 0.01 0.01 0.01 0.01 0.01 0.01 0.01 0.02 0.02 0.02 0.02 0.01 0.01 0.01 0.01 0.01 0.01 0.02 0.04 0.07 0.10 0.11 0.10
0.03 0.04 0.04 0.04 0.03 0.02 0.01 0.01 0.01 0.01 0.01 0.01 0.01 0.01 0.01 0.01 0.01 0.01 0.01 0.01 0.01 0.01 0.00 0.00 0.00 0.01 0.01 0.01 0.01 0.02 0.02 0.02 0.01 0.01 0.01 0.01 0.01 0.01 0.02 0.03 0.06 0.07 0.07
0.03 0.03 0.03 0.04 0.04 0.02 0.01 0.00 0.00 0.00 0.00 0.00 0.00 0.00 0.00 0.00 0.01 0.01 0.01 0.01 0.01 0.01 0.01 0.00 0.00 0.00 0.00 0.00 0.01 0.01 0.01 0.02 0.02 0.01 0.01 0.01 0.01 0.01 0.01 0.01 0.02 0.04 0.05
0.03 0.02 0.02 0.03 0.03 0.02 0.01 0.01 0.01 0.00 0.00 0.00 0.00 0.00 0.00 0.00 0.00 0.00 0.00 0.00 0.00 0.00 0.00 0.00 0.00 0.00 0.00 0.00 0.00 0.00 0.01 0.01 0.02 0.02 0.02 0.01 0.01 0.01 0.02 0.02 0.02 0.02 0.03
0.03 0.02 0.02 0.02 0.02 0.02 0.01 0.00 0.00 0.00 0.00 0.00 0.00 0.01 0.00 0.00 0.00 0.00 0.00 0.00 0.00 0.00 0.00 0.00 0.00 0.00 0.00 0.00 0.00 0.00 0.00 0.01 0.02 0.02 0.01 0.01 0.01 0.02 0.02 0.02 0.03 0.03 0.03
0.04 0.03 0.02 0.02 0.02 0.02 0.01 0.01 0.00 0.00 0.00 0.00 0.00 0.01 0.01 0.01 0.01 0.00 0.00 0.00 0.00 0.00 0.00 0.00 0.00 0.00 0.00 0.00 0.00 0.00 0.00 0.00 0.01 0.01 0.01 0.01 0.01 0.01 0.02 0.02 0.03 0.03 0.03
0.07 0.04 0.02 0.01 0.02 0.03 0.02 0.01 0.00 0.00 0.00 0.00 0.00 0.00 0.01 0.01 0.01 0.00 0.00 0.00 0.00 0.00 0.00 0.00 0.00 0.00 0.00 0.00 0.00 0.00 0.00 0.00 0.00 0.01 0.01 0.01 0.01 0.01 0.02 0.03 0.04 0.04 0.04
0.07 0.03 0.02 0.02 0.01 0.03 0.03 0.02 0.01 0.00 0.00 0.00 0.00 0.00 0.00 0.00 0.00 0.00 0.00 0.00 0.00 0.00 0.00 0.00 0.00 0.00 0.00 0.00 0.00 0.00 0.00 0.00 0.00 0.01 0.01 0.01 0.01 0.01 0.02 0.02 0.03 0.03 0.03
0.05 0.01 0.01 0.01 0.00 0.01 0.03 0.03 0.02 0.00 0.00 0.00 0.00 0.00 0.00 0.00 0.00 0.00 0.00 0.00 0.00 0.00 0.00 0.00 0.00 0.00 0.00 0.00 0.00 0.00 0.00 0.00 0.00 0.00 0.00 0.01 0.01 0.01 0.01 0.01 0.02 0.02 0.02
0.04 0.02 0.01 0.01 0.00 0.01 0.01 0.03 0.03 0.02 0.00 0.00 0.00 0.00 0.00 0.00 0.00 0.00 0.00 0.00 0.00 0.00 0.00 0.00 0.00 0.00 0.00 0.00 0.00 0.00 0.00 0.00 0.00 0.00 0.00 0.00 0.00 0.00 0.00 0.01 0.01 0.01 0.01
0.05 0.03 0.02 0.01 0.01 0.00 0.00 0.01 0.02 0.02 0.01 0.00 0.00 0.00 0.00 0.00 0.00 0.00 0.00 0.00 0.00 0.00 0.01 0.01 0.00 0.00 0.00 0.00 0.00 0.00 0.00 0.00 0.00 0.00 0.00 0.00 0.00 0.00 0.00 0.00 0.00 0.00 0.01
0.04 0.03 0.02 0.01 0.01 0.01 0.00 0.00 0.01 0.01 0.01 0.01 0.01 0.00 0.00 0.00 0.00 0.00 0.00 0.00 0.00 0.00 0.00 0.00 0.00 0.00 0.00 0.00 0.00 0.00 0.00 0.00 0.00 0.00 0.00 0.00 0.00 0.00 0.00 0.00 0.00 0.00 0.00
0.03 0.03 0.02 0.02 0.01 0.01 0.00 0.00 0.00 0.00 0.00 0.00 0.00 0.00 0.00 0.00 0.00 0.00 0.00 0.00 0.00 0.00 0.00 0.00 0.00 0.00 0.00 0.00 0.00 0.00 0.00 0.00 0.00 0.00 0.00 0.00 0.00 0.00 0.00 0.00 0.00 0.00 0.00
0.03 0.03 0.03 0.02 0.01 0.01 0.01 0.00 0.00 0.00 0.00 0.00 0.00 0.00 0.00 0.00 0.00 0.00 0.00 0.00 0.00 0.00 0.00 0.00 0.00 0.00 0.00 0.00 0.00 0.00 0.00 0.00 0.00 0.00 0.00 0.00 0.00 0.00 0.00 0.00 0.00 0.00 0.00
0.02 0.02 0.02 0.01 0.01 0.01 0.01 0.00 0.00 0.00 0.00 0.00 0.00 0.00 0.00 0.00 0.00 0.00 0.00 0.00 0.00 0.00 0.00 0.00 0.00 0.00 0.00 0.00 0.00 0.00 0.00 0.00 0.00 0.00 0.00 0.00 0.00 0.00 0.00 0.00 0.00 0.00 0.00
0.01 0.01 0.01 0.01 0.01 0.01 0.01 0.00 0.00 0.00 0.00 0.00 0.00 0.00 0.00 0.00 0.00 0.00 0.00 0.00 0.00 0.00 0.00 0.00 0.00 0.00 0.00 0.00 0.00 0.00 0.00 0.00 0.00 0.00 0.00 0.00 0.00 0.00 0.00 0.00 0.00 0.00 0.00
0.00 0.01 0.01 0.00 0.00 0.00 0.01 0.00 0.00 0.00 0.00 0.00 0.00 0.00 0.00 0.00 0.00 0.00 0.00 0.00 0.00 0.00 0.00 0.00 0.00 0.00 0.00 0.00 0.00 0.00 0.00 0.00 0.00 0.00 0.00 0.00 0.00 0.00 0.00 0.00 0.00 0.00 0.00
0.00 0.00 0.00 0.00 0.00 0.00 0.01 0.00 0.00 0.00 0.00 0.00 0.00 0.00 0.00 0.00 0.00 0.00 0.00 0.00 0.00 0.00 0.00 0.00 0.00 0.00 0.00 0.00 0.00 0.00 0.00 0.00 0.00 0.00 0.00 0.00 0.00 0.00 0.00 0.00 0.00 0.00 0.00
0.00 0.01 0.01 0.01 0.00 0.00 0.00 0.00 0.00 0.00 0.00 0.00 0.00 0.00 0.00 0.00 0.00 0.00 0.00 0.00 0.00 0.00 0.00 0.00 0.00 0.00 0.00 0.00 0.00 0.00 0.00 0.00 0.00 0.00 0.00 0.00 0.00 0.00 0.00 0.01 0.01 0.00 0.00
0.00 0.01 0.01 0.01 0.01 0.00 0.01 0.01 0.00 0.00 0.00 0.00 0.00 0.00 0.00 0.00 0.00 0.00 0.00 0.00 0.00 0.00 0.00 0.00 0.00 0.00 0.00 0.00 0.00 0.00 0.00 0.01 0.00 0.00 0.00 0.00 0.00 0.00 0.00 0.01 0.01 0.01 0.01
0.00 0.01 0.01 0.01 0.01 0.01 0.01 0.01 0.01 0.01 0.01 0.01 0.01 0.01 0.00 0.00 0.00 0.00 0.00 0.00 0.00 0.00 0.00 0.01 0.01 0.01 0.01 0.01 0.01 0.01 0.01 0.01 0.00 0.00 0.00 0.00 0.00 0.00 0.00 0.00 0.01 0.01 0.01
0.01 0.01 0.02 0.02 0.01 0.01 0.01 0.01 0.01 0.02 0.01 0.01 0.01 0.01 0.01 0.00 0.00 0.00 0.00 0.00 0.00 0.00 0.00 0.01 0.01 0.01 0.01 0.01 0.01 0.01 0.01 0.01 0.01 0.00 0.00 0.00 0.00 0.00 0.00 0.00 0.01 0.00 0.00
0.01 0.01 0.02 0.02 0.02 0.02 0.01 0.01 0.02 0.01 0.02 0.01 0.01 0.01 0.01 0.00 0.00 0.01 0.01 0.01 0.00 0.00 0.00 0.01 0.01 0.01 0.01 0.01 0.01 0.02 0.01 0.02 0.01 0.00 0.00 0.00 0.00 0.01 0.01 0.01 0.01 0.01 0.01
0.01 0.02 0.02 0.02 0.01 0.02 0.01 0.01 0.02 0.01 0.01 0.01 0.01 0.01 0.01 0.01 0.01 0.01 0.01 0.01 0.01 0.01 0.01 0.01 0.01 0.01 0.01 0.01 0.01 0.02 0.02 0.02 0.02 0.01 0.00 0.00 0.00 0.01 0.01 0.01 0.01 0.01 0.01
MSLP
1019.48 1019.53 1019.52 1019.45 1019.33 1019.17 1018.99 1018.79 1018.60 1018.40 1018.21 1018.04 1017.89 1017.78 1017.73 1017.72 1017.76 1017.82 1017.86 1017.86 1017.78 1017.60 1017.32 1016.98 1016.61 1016.26 1015.98 1015.81 1015.76 1015.82 1015.97 1016.17 1016.37 1016.55 1016.68 1016.76 1016.79 1016.78 1016.74 1016.68 1016.60 1016.52 1016.43
1019.69 1019.72 1019.70 1019.62 1019.49 1019.34 1019.17 1018.99 1018.82 1018.64 1018.47 1018.33 1018.20 1018.12 1018.09 1018.10 1018.15 1018.22 1018.28 1018.29 1018.22 1018.06 1017.82 1017.50 1017.15 1016.82 1016.55 1016.38 1016.30 1016.34 1016.45 1016.61 1016.79 1016.96 1017.09 1017.18 1017.23 1017.24 1017.22 1017.18 1017.11 1017.02 1016.92
1019.89 1019.91 1019.88 1019.81 1019.70 1019.57 1019.42 1019.27 1019.11 1018.96 1018.81 1018.68 1018.57 1018.49 1018.45 1018.45 1018.49 1018.55 1018.60 1018.61 1018.57 1018.44 1018.25 1017.99 1017.70 1017.43 1017.19 1017.02 1016.94 1016.94 1017.00 1017.11 1017.23 1017.36 1017.46 1017.54 1017.60 1017.62 1017.62 1017.60 1017.56 1017.49 1017.39
1020.04 1020.07 1020.06 1020.01 1019.93 1019.83 1019.72 1019.59 1019.46 1019.33 1019.19 1019.06 1018.93 1018.83 1018.77 1018.74 1018.74 1018.76 1018.79 1018.80 1018.78 1018.70 1018.57 1018.40 1018.20 1018.00 1017.83 1017.69 1017.61 1017.57 1017.58 1017.61 1017.66 1017.71 1017.76 1017.80 1017.84 1017.86 1017.88 1017.89 1017.87 1017.83 1017.76
1020.13 1020.18 1020.20 1020.19 1020.15 1020.10 1020.03 1019.94 1019.83 1019.71 1019.57 1019.42 1019.28 1019.14 1019.03 1018.95 1018.90 1018.87 1018.87 1018.87 1018.86 1018.83 1018.77 1018.70 1018.60 1018.50 1018.40 1018.31 1018.23 1018.17 1018.12 1018.08 1018.04 1018.01 1017.98 1017.96 1017.95 1017.96 1017.98 1018.00 1018.01 1018.00 1017.97
1020.14 1020.22 1020.29 1020.33 1020.35 1020.35 1020.32 1020.26 1020.18 1020.06 1019.92 1019.76 1019.58 1019.41 1019.25 1019.10 1018.99 1018.91 1018.87 1018.85 1018.84 1018.85 1018.86 1018.86 1018.86 1018.86 1018.84 1018.81 1018.76 1018.68 1018.59 1018.48 1018.35 1018.23 1018.12 1018.03 1017.97 1017.95 1017.95 1017.98 1018.01 1018.02 1018.02
1020.08 1020.20 1020.32 1020.42 1020.50 1020.55 1020.56 1020.53 1020.46 1020.36 1020.22 1020.04 1019.85 1019.64 1019.44 1019.25 1019.09 1018.95 1018.86 1018.80 1018.79 1018.81 1018.85 1018.92 1018.99 1019.06 1019.12 1019.14 1019.12 1019.05 1018.94 1018.78 1018.59 1018.40 1018.21 1018.06 1017.94 1017.88 1017.86 1017.87 1017.90 1017.93 1017.95
1019.97 1020.14 1020.30 1020.46 1020.59 1020.68 1020.73 1020.73 1020.68 1020.58 1020.45 1020.28 1020.08 1019.87 1019.65 1019.43 1019.23 1019.05 1018.91 1018.81 1018.76 1018.76 1018.80 1018.89 1019.00 1019.11 1019.22 1019.28 1019.30 1019.25 1019.14 1018.97 1018.75 1018.51 1018.28 1018.08 1017.92 1017.81 1017.76 1017.75 1017.77 1017.80 1017.82
1019.83 1020.03 1020.24 1020.43 1020.60 1020.72 1020.80 1020.82 1020.79 1020.72 1020.61 1020.46 1020.29 1020.10 1019.89 1019.68 1019.46 1019.25 1019.06 1018.91 1018.80 1018.74 1018.74 1018.80 1018.90 1019.02 1019.14 1019.24 1019.29 1019.27 1019.18 1019.03 1018.82 1018.58 1018.34 1018.11 1017.92 1017.78 1017.70 1017.66 1017.66 1017.67 1017.69
1019.69 1019.91 1020.14 1020.35 1020.54 1020.68 1020.77 1020.81 1020.81 1020.76 1020.69 1020.59 1020.47 1020.33 1020.17 1019.98 1019.77 1019.54 1019.32 1019.10 1018.91 1018.78 1018.70 1018.68 1018.73 1018.81 1018.92 1019.03 1019.10 1019.12 1019.08 1018.98 1018.81 1018.60 1018.38 1018.16 1017.96 1017.81 1017.69 1017.62 1017.59 1017.58 1017.58
1019.55 1019.77 1020.00 1020.21 1020.40 1020.54 1020.64 1020.70 1020.72 1020.71 1020.69 1020.65 1020.60 1020.53 1020.43 1020.29 1020.11 1019.88 1019.62 1019.35 1019.08 1018.85 1018.67 1018.55 1018.51 1018.54 1018.60 1018.70 1018.78 1018.84 1018.85 1018.80 1018.70 1018.55 1018.37 1018.18 1018.00 1017.83 1017.70 1017.61 1017.54 1017.50 1017.47
1019.40 1019.61 1019.81 1020.01 1020.18 1020.32 1020.42 1020.48 1020.53 1020.56 1020.59 1020.62 1020.65 1020.65 1020.62 1020.54 1020.39 1020.17 1019.90 1019.58 1019.24 1018.91 1018.63 1018.41 1018.27 1018.22 1018.23 1018.29 1018.38 1018.46 1018.51 1018.53 1018.49 1018.40 1018.28 1018.13 1017.97 1017.81 1017.67 1017.55 1017.46 1017.39 1017.34
1019.23 1019.41 1019.59 1019.76 1019.90 1020.02 1020.12 1020.19 1020.26 1020.32 1020.40 1020.49 1020.57 1020.64 1020.67 1020.64 1020.54 1020.34 1020.06 1019.71 1019.32 1018.93 1018.56 1018.25 1018.03 1017.89 1017.84 1017.86 1017.93 1018.02 1018.10 1018.16 1018.18 1018.15 1018.07 1017.96 1017.83 1017.69 1017.54 1017.41 1017.30 1017.21 1017.14
1019.04 1019.18 1019.33 1019.47 1019.59 1019.69 1019.78 1019.85 1019.93 1020.01 1020.12 1020.24 1020.36 1020.47 1020.54 1020.55 1020.47 1020.30 1020.03 1019.68 1019.27 1018.85 1018.43 1018.07 1017.78 1017.58 1017.47 1017.45 1017.49 1017.56 1017.65 1017.73 1017.77 1017.78 1017.74 1017.66 1017.54 1017.41 1017.27 1017.14 1017.01 1016.91 1016.83
1018.83 1018.94 1019.06 1019.17 1019.26 1019.35 1019.43 1019.50 1019.57 1019.66 1019.77 1019.89 1020.02 1020.14 1020.22 1020.24 1020.18 1020.03 1019.79 1019.46 1019.07 1018.65 1018.23 1017.85 1017.53 1017.29 1017.14 1017.08 1017.07 1017.12 1017.18 1017.24 1017.29 1017.30 1017.27 1017.20 1017.10 1016.98 1016.85 1016.72 1016.60 1016.50 1016.43
1018.61 1018.70 1018.79 1018.88 1018.97 1019.04 1019.11 1019.17 1019.23 1019.30 1019.38 1019.48 1019.58 1019.67 1019.73 1019.74 1019.68 1019.55 1019.33 1019.04 1018.70 1018.32 1017.94 1017.58 1017.27 1017.03 1016.85 1016.75 1016.70 1016.69 1016.71 1016.73 1016.75 1016.74 1016.70 1016.63 1016.54 1016.43 1016.31 1016.19 1016.09 1016.01 1015.95
1018.42 1018.50 1018.58 1018.66 1018.73 1018.80 1018.85 1018.90 1018.93 1018.97 1019.00 1019.04 1019.08 1019.11 1019.12 1019.09 1019.02 1018.89 1018.71 1018.47 1018.19 1017.88 1017.57 1017.26 1016.99 1016.75 1016.57 1016.43 1016.34 1016.27 1016.24 1016.20 1016.17 1016.13 1016.07 1016.00 1015.91 1015.81 1015.70 1015.61 1015.52 1015.46 1015.42
1018.29 1018.36 1018.43 1018.50 1018.57 1018.63 1018.66 1018.69 1018.69 1018.67 1018.64 1018.61 1018.56 1018.51 1018.45 1018.37 1018.27 1018.14 1017.98 1017.79 1017.58 1017.35 1017.10 1016.87 1016.64 1016.43 1016.25 1016.09 1015.95 1015.84 1015.74 1015.65 1015.58 1015.50 1015.42 1015.34 1015.26 1015.17 1015.09 1015.02 1014.95 1014.91 1014.89
1018.24 1018.30 1018.36 1018.42 1018.47 1018.51 1018.53 1018.52 1018.47 1018.40 1018.30 1018.18 1018.06 1017.92 1017.78 1017.64 1017.50 1017.36 1017.21 1017.06 1016.89 1016.73 1016.55 1016.37 1016.19 1016.01 1015.83 1015.65 1015.49 1015.33 1015.19 1015.07 1014.95 1014.86 1014.77 1014.69 1014.62 1014.56 1014.50 1014.45 1014.41 1014.38 1014.37
1018.26 1018.30 1018.34 1018.38 1018.41 1018.42 1018.41 1018.35 1018.26 1018.13 1017.96 1017.77 1017.56 1017.35 1017.14 1016.94 1016.75 1016.58 1016.43 1016.29 1016.15 1016.02 1015.89 1015.75 1015.59 1015.43 1015.26 1015.08 1014.90 1014.72 1014.56 1014.42 1014.30 1014.20 1014.13 1014.07 1014.03 1013.99 1013.96 1013.93 1013.91 1013.88 1013.86
1018.34 1018.34 1018.35 1018.35 1018.34 1018.31 1018.25 1018.14 1018.00 1017.81 1017.59 1017.34 1017.06 1016.79 1016.52 1016.27 1016.04 1015.84 1015.66 1015.51 1015.37 1015.24 1015.11 1014.97 1014.83 1014.67 1014.50 1014.32 1014.14 1013.98 1013.82 1013.70 1013.60 1013.54 1013.50 1013.47 1013.47 1013.46 1013.46 1013.44 1013.42 1013.39 1013.35
1018.41 1018.38 1018.34 1018.29 1018.22 1018.13 1018.01 1017.85 1017.66 1017.42 1017.15 1016.86 1016.55 1016.23 1015.93 1015.64 1015.37 1015.12 1014.90 1014.71 1014.53 1014.36 1014.21 1014.05 1013.88 1013.72 1013.55 1013.38 1013.23 1013.09 1012.98 1012.90 1012.86 1012.84 1012.86 1012.88 1012.92 1012.95 1012.96 1012.96 1012.93 1012.89 1012.83
1018.45 1018.37 1018.27 1018.15 1018.02 1017.86 1017.67 1017.46 1017.21 1016.94 1016.64 1016.32 1016.00 1015.67 1015.34 1015.02 1014.71 1014.42 1014.15 1013.89 1013.65 1013.42 1013.20 1012.99 1012.80 1012.61 1012.44 1012.30 1012.18 1012.09 1012.05 1012.04 1012.07 1012.13 1012.20 1012.29 1012.36 1012.42 1012.45 1012.45 1012.41 1012.35 1012.27
1018.41 1018.28 1018.11 1017.93 1017.72 1017.49 1017.23 1016.96 1016.67 1016.37 1016.06 1015.74 1015.41 1015.08 1014.75 1014.42 1014.08 1013.74 1013.40 1013.07 1012.74 1012.43 1012.13 1011.86 1011.62 1011.41 1011.24 1011.12 1011.05 1011.03 1011.06 1011.14 1011.25 1011.39 1011.54 1011.67 1011.79 1011.87 1011.91 1011.91 1011.86 1011.78 1011.69
1018.27 1018.08 1017.86 1017.61 1017.34 1017.04 1016.72 1016.40 1016.07 1015.75 1015.44 1015.13 1014.82 1014.50 1014.17 1013.83 1013.47 1013.08 1012.68 1012.26 1011.85 1011.44 1011.06 1010.72 1010.42 1010.19 1010.02 1009.94 1009.92 1009.97 1010.08 1010.25 1010.44 1010.65 1010.86 1011.04 1011.19 1011.29 1011.34 1011.33 1011.28 1011.20 1011.10
1018.02 1017.80 1017.53 1017.23 1016.90 1016.54 1016.18 1015.81 1015.46 1015.14 1014.82 1014.53 1014.23 1013.94 1013.62 1013.27 1012.88 1012.46 1011.99 1011.50 1011.00 1010.50 1010.04 1009.63 1009.29 1009.03 1008.87 1008.81 1008.85 1008.96 1009.15 1009.38 1009.65 1009.92 1010.17 1010.39 1010.57 1010.68 1010.74 1010.74 1010.70 1010.63 1010.54
Thickness
5666 5666 5665 5664 5663 5662 5661 5661 5661 5661 5660 5659 5658 5657 5656 5654 5653 5651 5649 5648 5648 5647 5647 5647 5647 5646 5646 5646 5646 5646 5646 5646 5646 5646 5647 5647 5648 5649 5650 5651 5652 5652 5653
5660 5659 5658 5657 5656 5655 5655 5654 5654 5653 5653 5652 5651 5650 5648 5647 5646 5644 5642 5641 5640 5639 5639 5639 5638 5638 5638 5637 5637 5637 5636 5636 5637 5637 5638 5639 5640 5641 5642 5643 5644 5645 5646
5653 5652 5651 5650 5649 5648 5648 5647 5647 5646 5646 5645 5643 5642 5641 5639 5638 5637 5635 5633 5632 5631 5630 5630 5629 5629 5628 5628 5627 5627 5627 5627 5627 5627 5628 5629 5630 5631 5632 5634 5635 5636 5638
5646 5644 5643 5642 5642 5641 5640 5639 5639 5638 5637 5636 5635 5634 5633 5632 5630 5629 5627 5626 5624 5623 5621 5620 5620 5619 5618 5618 5617 5617 5617 5617 5617 5617 5618 5619 5620 5621 5622 5624 5625 5627 5629
5638 5637 5635 5634 5634 5633 5632 5632 5630 5629 5627 5627 5627 5627 5626 5624 5623 5622 5620 5618 5616 5615 5613 5612 5610 5609 5608 5608 5607 5607 5607 5607 5607 5607 5608 5609 5610 5611 5612 5614 5615 5617 5619
5629 5628 5628 5627 5626 5625 5624 5623 5621 5621 5620 5619 5620 5619 5619 5618 5616 5615 5613 5611 5609 5607 5605 5603 5601 5599 5598 5597 5596 5596 5596 5596 5596 5597 5597 5598 5599 5600 5602 5603 5605 5606 5608
5622 5620 5619 5619 5617 5616 5615 5614 5613 5612 5611 5610 5610 5610 5611 5611 5609 5607 5605 5603 5600 5598 5596 5594 5592 5590 5588 5586 5585 5584 5584 5585 5585 5586 5586 5587 5587 5588 5590 5592 5593 5595 5597
5614 5613 5611 5610 5609 5607 5606 5605 5604 5602 5602 5601 5599 5598 5598 5599 5599 5599 5596 5594 5592 5589 5587 5585 5582 5580 5578 5576 5574 5573 5573 5573 5573 5574 5575 5575 5576 5577 5578 5579 5581 5583 5584
5606 5605 5603 5602 5600 5599 5597 5596 5595 5593 5591 5591 5590 5588 5586 5585 5586 5588 5588 5586 5583 5580 5577 5575 5573 5570 5568 5566 5564 5562 5561 5561 5561 5562 5563 5563 5564 5565 5566 5567 5568 5570 5571
5598 5597 5594 5594 5592 5591 5589 5588 5587 5584 5582 5580 5580 5579 5578 5576 5573 5572 5575 5575 5574 5571 5568 5566 5563 5560 5558 5555 5553 5551 5549 5548 5548 5549 5550 5550 5551 5552 5553 5553 5554 5556 5557
5590 5588 5587 5585 5584 5582 5581 5579 5577 5576 5574 5571 5569 5568 5568 5567 5564 5561 5561 5561 5561 5560 5558 5556 5553 5550 5547 5544 5542 5539 5537 5536 5536 5536 5536 5537 5538 5538 5539 5539 5540 5541 5543
5582 5581 5579 5577 5576 5574 5572 5571 5569 5567 5565 5563 5561 5559 5556 5554 5553 5550 5549 5549 5548 5549 5548 5545 5542 5540 5537 5533 5530 5528 5526 5524 5523 5523 5523 5523 5523 5523 5524 5525 5525 5526 5528
5574 5573 5571 5569 5567 5566 5564 5562 5560 5557 5555 5553 5551 5549 5547 5545 5543 5540 5538 5536 5536 5537 5537 5535 5532 5529 5525 5522 5519 5516 5514 5512 5510 5509 5508 5508 5508 5508 5508 5509 5510 5511 5513
5566 5565 5562 5561 5559 5557 5555 5553 5550 5548 5546 5543 5541 5539 5536 5534 5532 5529 5526 5522 5521 5523 5524 5522 5520 5517 5514 5511 5508 5505 5502 5499 5497 5496 5495 5494 5493 5493 5493 5494 5495 5496 5498
5558 5556 5554 5552 5550 5548 5546 5544 5541 5539 5536 5533 5531 5528 5525 5523 5520 5518 5514 5510 5506 5505 5510 5509 5506 5504 5501 5498 5495 5493 5489 5486 5484 5483 5481 5480 5479 5478 5478 5479 5479 5480 5482
5548 5547 5545 5542 5541 5539 5537 5534 5532 5529 5526 5524 5521 5518 5515 5512 5509 5506 5503 5499 5495 5491 5493 5497 5493 5490 5487 5485 5482 5479 5477 5474 5471 5469 5467 5466 5465 5464 5463 5464 5464 5465 5466
5539 5537 5535 5533 5531 5529 5527 5524 5521 5519 5516 5513 5511 5508 5505 5501 5498 5495 5491 5487 5483 5479 5479 5483 5479 5476 5473 5470 5468 5466 5463 5461 5458 5455 5453 5452 5450 5449 5449 5449 5449 5450 5451
5529 5527 5525 5523 5521 5518 5516 5514 5511 5508 5505 5503 5500 5496 5493 5490 5486 5482 5479 5475 5471 5468 5465 5466 5465 5461 5459 5456 5454 5452 5450 5447 5444 5442 5439 5438 5436 5435 5434 5434 5434 5435 5436
5519 5517 5514 5512 5510 5508 5505 5503 5500 5498 5495 5492 5488 5485 5482 5477 5474 5470 5466 5463 5459 5456 5451 5449 5450 5447 5444 5442 5439 5437 5435 5432 5430 5427 5425 5424 5422 5421 5420 5420 5421 5421 5421
5508 5506 5504 5501 5499 5497 5494 5492 5489 5486 5483 5480 5476 5473 5469 5465 5462 5457 5453 5449 5445 5440 5437 5434 5433 5431 5429 5426 5423 5420 5419 5417 5415 5413 5411 5409 5408 5407 5407 5407 5407 5407 5407
5498 5495 5492 5490 5488 5485 5483 5480 5477 5474 5470 5467 5464 5460 5457 5453 5449 5445 5441 5436 5430 5426 5422 5418 5417 5415 5414 5410 5407 5405 5403 5401 5400 5398 5396 5395 5394 5393 5393 5393 5393 5393 5394
5487 5484 5481 5479 5476 5474 5471 5468 5465 5461 5458 5454 5451 5448 5444 5440 5436 5432 5428 5424 5419 5413 5408 5404 5403 5400 5400 5396 5393 5390 5387 5385 5384 5385 5381 5382 5380 5380 5380 5380 5380 5381 5382
5476 5473 5470 5467 5464 5462 5459 5456 5452 5448 5444 5441 5437 5434 5431 5428 5423 5419 5416 5412 5408 5403 5399 5394 5390 5389 5386 5383 5378 5376 5373 5370 5370 5370 5368 5369 5368 5368 5368 5368 5369 5370 5371
5464 5461 5458 5455 5452 5450 5446 5443 5440 5436 5431 5428 5424 5420 5416 5414 5409 5405 5402 5398 5394 5390 5386 5382 5379 5377 5373 5370 5366 5363 5360 5359 5359 5358 5355 5355 5356 5356 5358 5358 5358 5359 5360
5452 5449 5446 5443 5440 5437 5434 5430 5427 5422 5418 5415 5411 5407 5402 5399 5396 5392 5388 5384 5381 5378 5374 5370 5368 5365 5362 5358 5354 5350 5347 5344 5346 5347 5343 5342 5344 5344 5345 5347 5348 5348 5349
5441 5438 5435 5432 5428 5425 5422 5419 5415 5409 5405 5402 5398 5394 5390 5386 5383 5378 5373 5369 5366 5364 5360 5358 5355 5353 5350 5346 5343 5339 5335 5332 5332 5333 5334 5330 5330 5329 5332 5335 5336 5336 5337